contact:dominique.lefevre@mio.osupytheas.fr, maurice.libes@osupytheas.fr, didier.mallarino@osupytheas.fr
Project:EMSO http://www.emso-fr.org/EMSO-France
Depth: 2436.0 m
Title:EMSO Ligure Ouest : Data MII capteur MICROCAT
DateTime_Computer,Latitude,Longitude,Temperature,Conductivity,Pressure,DateTime_Instrument
DateTime_Computer,Latitude,Longitude,degC,S m-1,dbar,DateTime_Instrument
2022-02-17T00:02:26Z,42.805,6.029,13.2997,4.60026,2470.427,2022-2-17T02:03:59Z
2022-02-17T00:05:29Z,42.805,6.029,13.3002,4.60028,2470.45,2022-2-17T02:07:03Z
2022-02-17T00:08:32Z,42.805,6.029,13.2998,4.60027,2470.413,2022-2-17T02:10:06Z
2022-02-17T00:11:35Z,42.805,6.029,13.3000,4.60026,2470.474,2022-2-17T02:13:09Z
2022-02-17T00:14:38Z,42.805,6.029,13.2998,4.60026,2470.38,2022-2-17T02:16:12Z
2022-02-17T00:17:41Z,42.805,6.029,13.3000,4.60026,2470.45,2022-2-17T02:19:15Z
2022-02-17T00:20:44Z,42.805,6.029,13.2996,4.60029,2470.427,2022-2-17T02:22:18Z
2022-02-17T00:23:48Z,42.805,6.029,13.3000,4.60028,2470.39,2022-2-17T02:25:21Z
2022-02-17T00:26:51Z,42.805,6.029,13.2997,4.60026,2470.437,2022-2-17T02:28:24Z
2022-02-17T00:29:54Z,42.805,6.029,13.2999,4.60026,2470.404,2022-2-17T02:31:28Z
2022-02-17T00:32:57Z,42.805,6.029,13.3002,4.60029,2470.427,2022-2-17T02:34:31Z
2022-02-17T00:36:00Z,42.805,6.029,13.2994,4.60027,2470.413,2022-2-17T02:37:34Z
2022-02-17T00:39:03Z,42.805,6.029,13.3000,4.60029,2470.427,2022-2-17T02:40:37Z
2022-02-17T00:42:06Z,42.805,6.029,13.3000,4.60026,2470.413,2022-2-17T02:43:40Z
2022-02-17T00:45:09Z,42.805,6.029,13.3002,4.60028,2470.404,2022-2-17T02:46:43Z
2022-02-17T00:48:13Z,42.805,6.029,13.3002,4.60026,2470.404,2022-2-17T02:49:46Z
2022-02-17T00:51:16Z,42.805,6.029,13.3000,4.60026,2470.427,2022-2-17T02:52:49Z
2022-02-17T00:54:19Z,42.805,6.029,13.2997,4.60028,2470.39,2022-2-17T02:55:53Z
2022-02-17T00:57:22Z,42.805,6.029,13.2998,4.60026,2470.39,2022-2-17T02:58:56Z
2022-02-17T01:00:25Z,42.805,6.029,13.2998,4.60025,2470.366,2022-2-17T03:01:59Z
2022-02-17T01:03:29Z,42.805,6.029,13.3000,4.60026,2470.39,2022-2-17T03:05:03Z
2022-02-17T01:06:32Z,42.805,6.029,13.2998,4.60026,2470.38,2022-2-17T03:08:06Z
2022-02-17T01:09:35Z,42.805,6.029,13.2996,4.60027,2470.39,2022-2-17T03:11:09Z
2022-02-17T01:12:38Z,42.805,6.029,13.2996,4.60025,2470.39,2022-2-17T03:14:12Z
2022-02-17T01:15:41Z,42.805,6.029,13.2998,4.60026,2470.404,2022-2-17T03:17:15Z
2022-02-17T01:18:45Z,42.805,6.029,13.2998,4.60026,2470.39,2022-2-17T03:20:18Z
2022-02-17T01:21:48Z,42.805,6.029,13.2997,4.60026,2470.404,2022-2-17T03:23:21Z
2022-02-17T01:24:51Z,42.805,6.029,13.2996,4.60024,2470.413,2022-2-17T03:26:24Z
2022-02-17T01:27:54Z,42.805,6.029,13.2997,4.60024,2470.45,2022-2-17T03:29:28Z
2022-02-17T01:30:57Z,42.805,6.029,13.2998,4.60025,2470.39,2022-2-17T03:32:31Z
2022-02-17T01:34:00Z,42.805,6.029,13.2998,4.60024,2470.413,2022-2-17T03:35:34Z
2022-02-17T01:37:03Z,42.805,6.029,13.2998,4.60026,2470.404,2022-2-17T03:38:37Z
2022-02-17T01:40:06Z,42.805,6.029,13.3000,4.60024,2470.413,2022-2-17T03:41:40Z
2022-02-17T01:43:10Z,42.805,6.029,13.2997,4.60025,2470.404,2022-2-17T03:44:43Z
2022-02-17T01:46:13Z,42.805,6.029,13.2999,4.60026,2470.413,2022-2-17T03:47:46Z
2022-02-17T01:49:16Z,42.805,6.029,13.2999,4.60026,2470.39,2022-2-17T03:50:49Z
2022-02-17T01:52:19Z,42.805,6.029,13.3000,4.60026,2470.413,2022-2-17T03:53:53Z
2022-02-17T01:55:22Z,42.805,6.029,13.2996,4.60025,2470.39,2022-2-17T03:56:56Z
2022-02-17T01:58:25Z,42.805,6.029,13.3000,4.60024,2470.413,2022-2-17T03:59:59Z
2022-02-17T02:01:28Z,42.805,6.029,13.2998,4.60023,2470.427,2022-2-17T04:03:02Z
2022-02-17T02:04:31Z,42.805,6.029,13.2998,4.60024,2470.413,2022-2-17T04:06:05Z
2022-02-17T02:07:34Z,42.805,6.029,13.2997,4.60024,2470.404,2022-2-17T04:09:08Z
2022-02-17T02:10:38Z,42.805,6.029,13.2998,4.60024,2470.38,2022-2-17T04:12:11Z
2022-02-17T02:13:41Z,42.805,6.029,13.2995,4.60025,2470.413,2022-2-17T04:15:14Z
2022-02-17T02:16:44Z,42.805,6.029,13.2997,4.60024,2470.45,2022-2-17T04:18:18Z
2022-02-17T02:19:47Z,42.805,6.029,13.2998,4.60024,2470.39,2022-2-17T04:21:21Z
2022-02-17T02:22:50Z,42.805,6.029,13.2996,4.60026,2470.437,2022-2-17T04:24:24Z
2022-02-17T02:25:53Z,42.805,6.029,13.2998,4.60024,2470.437,2022-2-17T04:27:27Z
2022-02-17T02:28:56Z,42.805,6.029,13.2998,4.60023,2470.39,2022-2-17T04:30:30Z
2022-02-17T02:31:59Z,42.805,6.029,13.2996,4.60023,2470.39,2022-2-17T04:33:33Z
2022-02-17T02:35:03Z,42.805,6.029,13.2996,4.60024,2470.39,2022-2-17T04:36:36Z
2022-02-17T02:38:06Z,42.805,6.029,13.3000,4.60023,2470.39,2022-2-17T04:39:39Z
2022-02-17T02:41:09Z,42.805,6.029,13.2994,4.60025,2470.413,2022-2-17T04:42:43Z
2022-02-17T02:44:12Z,42.805,6.029,13.2998,4.60023,2470.413,2022-2-17T04:45:46Z
2022-02-17T02:47:15Z,42.805,6.029,13.2998,4.60024,2470.413,2022-2-17T04:48:49Z
2022-02-17T02:50:18Z,42.805,6.029,13.3000,4.60024,2470.413,2022-2-17T04:51:52Z
2022-02-17T02:53:21Z,42.805,6.029,13.2994,4.60024,2470.427,2022-2-17T04:54:55Z
2022-02-17T02:56:24Z,42.805,6.029,13.2997,4.60024,2470.437,2022-2-17T04:57:58Z
2022-02-17T02:59:28Z,42.805,6.029,13.2999,4.60024,2470.413,2022-2-17T05:01:01Z
2022-02-17T03:02:31Z,42.805,6.029,13.2994,4.60024,2470.437,2022-2-17T05:04:04Z
2022-02-17T03:05:34Z,42.805,6.029,13.2998,4.60024,2470.46,2022-2-17T05:07:07Z
2022-02-17T03:08:37Z,42.805,6.029,13.2996,4.60023,2470.427,2022-2-17T05:10:11Z
2022-02-17T03:11:40Z,42.805,6.029,13.2998,4.60023,2470.427,2022-2-17T05:13:14Z
2022-02-17T03:14:43Z,42.805,6.029,13.2997,4.60025,2470.437,2022-2-17T05:16:17Z
2022-02-17T03:17:46Z,42.805,6.029,13.2995,4.60024,2470.427,2022-2-17T05:19:20Z
2022-02-17T03:20:49Z,42.805,6.029,13.2994,4.60024,2470.46,2022-2-17T05:22:23Z
2022-02-17T03:23:53Z,42.805,6.029,13.2997,4.60024,2470.45,2022-2-17T05:25:26Z
2022-02-17T03:26:56Z,42.805,6.029,13.2999,4.60023,2470.437,2022-2-17T05:28:29Z
2022-02-17T03:29:59Z,42.805,6.029,13.2998,4.60023,2470.437,2022-2-17T05:31:32Z
2022-02-17T03:33:02Z,42.805,6.029,13.2995,4.60024,2470.437,2022-2-17T05:34:36Z
2022-02-17T03:36:05Z,42.805,6.029,13.2996,4.60024,2470.437,2022-2-17T05:37:39Z
2022-02-17T03:39:08Z,42.805,6.029,13.2993,4.60023,2470.46,2022-2-17T05:40:42Z
2022-02-17T03:42:11Z,42.805,6.029,13.2996,4.60023,2470.46,2022-2-17T05:43:45Z
2022-02-17T03:45:14Z,42.805,6.029,13.2995,4.60024,2470.483,2022-2-17T05:46:48Z
2022-02-17T03:48:18Z,42.805,6.029,13.2996,4.60022,2470.413,2022-2-17T05:49:51Z
2022-02-17T03:51:21Z,42.805,6.029,13.2997,4.60023,2470.46,2022-2-17T05:52:54Z
2022-02-17T03:54:24Z,42.805,6.029,13.2999,4.60024,2470.46,2022-2-17T05:55:57Z
2022-02-17T03:57:27Z,42.805,6.029,13.2998,4.60022,2470.483,2022-2-17T05:59:01Z
2022-02-17T04:00:30Z,42.805,6.029,13.2996,4.60022,2470.46,2022-2-17T06:02:04Z
2022-02-17T04:03:33Z,42.805,6.029,13.2997,4.60021,2470.483,2022-2-17T06:05:07Z
2022-02-17T04:06:36Z,42.805,6.029,13.2996,4.60022,2470.483,2022-2-17T06:08:10Z
2022-02-17T04:09:39Z,42.805,6.029,13.2993,4.60021,2470.46,2022-2-17T06:11:13Z
2022-02-17T04:12:42Z,42.805,6.029,13.2998,4.60022,2470.507,2022-2-17T06:14:16Z
2022-02-17T04:15:46Z,42.805,6.029,13.2996,4.60021,2470.52,2022-2-17T06:17:19Z
2022-02-17T04:18:49Z,42.805,6.029,13.2995,4.60022,2470.52,2022-2-17T06:20:22Z
2022-02-17T04:21:52Z,42.805,6.029,13.2996,4.60022,2470.52,2022-2-17T06:23:26Z
2022-02-17T04:24:55Z,42.805,6.029,13.2995,4.60021,2470.497,2022-2-17T06:26:29Z
2022-02-17T04:27:58Z,42.805,6.029,13.2994,4.60021,2470.483,2022-2-17T06:29:32Z
2022-02-17T04:31:01Z,42.805,6.029,13.2995,4.60022,2470.53,2022-2-17T06:32:35Z
2022-02-17T04:34:04Z,42.805,6.029,13.2994,4.60022,2470.507,2022-2-17T06:35:38Z
2022-02-17T04:37:08Z,42.805,6.029,13.2993,4.60021,2470.53,2022-2-17T06:38:41Z
2022-02-17T04:40:11Z,42.805,6.029,13.2993,4.60021,2470.53,2022-2-17T06:41:44Z
2022-02-17T04:43:14Z,42.805,6.029,13.2996,4.60021,2470.52,2022-2-17T06:44:47Z
2022-02-17T04:46:17Z,42.805,6.029,13.2994,4.60022,2470.52,2022-2-17T06:47:51Z
2022-02-17T04:49:20Z,42.805,6.029,13.2996,4.60022,2470.52,2022-2-17T06:50:54Z
2022-02-17T04:52:23Z,42.805,6.029,13.2995,4.60022,2470.53,2022-2-17T06:53:57Z
2022-02-17T04:55:26Z,42.805,6.029,13.2993,4.60021,2470.53,2022-2-17T06:57:00Z
2022-02-17T04:58:29Z,42.805,6.029,13.2995,4.60021,2470.577,2022-2-17T07:00:03Z
2022-02-17T05:01:32Z,42.805,6.029,13.2994,4.60022,2470.567,2022-2-17T07:03:06Z
2022-02-17T05:04:36Z,42.805,6.029,13.2996,4.60021,2470.577,2022-2-17T07:06:09Z
2022-02-17T05:07:39Z,42.805,6.029,13.2993,4.60021,2470.553,2022-2-17T07:09:12Z
2022-02-17T05:10:42Z,42.805,6.029,13.2999,4.60022,2470.553,2022-2-17T07:12:16Z
2022-02-17T05:13:45Z,42.805,6.029,13.2998,4.60021,2470.553,2022-2-17T07:15:19Z
2022-02-17T05:16:48Z,42.805,6.029,13.3000,4.60021,2470.553,2022-2-17T07:18:22Z
2022-02-17T05:19:51Z,42.805,6.029,13.2997,4.60022,2470.591,2022-2-17T07:21:25Z
2022-02-17T05:22:54Z,42.805,6.029,13.2997,4.60022,2470.563,2022-2-17T07:24:28Z
2022-02-17T05:25:57Z,42.805,6.029,13.2997,4.60021,2470.591,2022-2-17T07:27:31Z
2022-02-17T05:29:01Z,42.805,6.029,13.2995,4.60022,2470.591,2022-2-17T07:30:34Z
2022-02-17T05:32:04Z,42.805,6.029,13.2995,4.60021,2470.614,2022-2-17T07:33:37Z
2022-02-17T05:35:07Z,42.805,6.029,13.2996,4.60023,2470.614,2022-2-17T07:36:41Z
2022-02-17T05:38:10Z,42.805,6.029,13.2995,4.60021,2470.6,2022-2-17T07:39:44Z
2022-02-17T05:41:13Z,42.805,6.029,13.2993,4.60021,2470.614,2022-2-17T07:42:47Z
2022-02-17T05:44:16Z,42.805,6.029,13.2993,4.60023,2470.563,2022-2-17T07:45:50Z
2022-02-17T05:47:19Z,42.805,6.029,13.2993,4.60022,2470.577,2022-2-17T07:48:53Z
2022-02-17T05:50:22Z,42.805,6.029,13.2998,4.60024,2470.577,2022-2-17T07:51:56Z
2022-02-17T05:53:26Z,42.805,6.029,13.2994,4.60021,2470.591,2022-2-17T07:54:59Z
2022-02-17T05:56:29Z,42.805,6.029,13.2998,4.60022,2470.6,2022-2-17T07:58:02Z
2022-02-17T05:59:32Z,42.805,6.029,13.2993,4.60024,2470.6,2022-2-17T08:01:05Z
2022-02-17T06:02:35Z,42.805,6.029,13.2995,4.60022,2470.624,2022-2-17T08:04:09Z
2022-02-17T06:05:38Z,42.805,6.029,13.2994,4.60022,2470.624,2022-2-17T08:07:12Z
2022-02-17T06:08:41Z,42.805,6.029,13.2996,4.60022,2470.646,2022-2-17T08:10:15Z
2022-02-17T06:11:44Z,42.805,6.029,13.2998,4.60021,2470.6,2022-2-17T08:13:18Z
2022-02-17T06:14:47Z,42.805,6.029,13.2995,4.60022,2470.646,2022-2-17T08:16:21Z
2022-02-17T06:17:50Z,42.805,6.029,13.2991,4.60022,2470.624,2022-2-17T08:19:24Z
2022-02-17T06:20:54Z,42.805,6.029,13.2992,4.60023,2470.624,2022-2-17T08:22:27Z
2022-02-17T06:23:57Z,42.805,6.029,13.2996,4.60021,2470.624,2022-2-17T08:25:30Z
2022-02-17T06:27:00Z,42.805,6.029,13.2996,4.60022,2470.646,2022-2-17T08:28:34Z
2022-02-17T06:30:03Z,42.805,6.029,13.2994,4.60022,2470.646,2022-2-17T08:31:37Z
2022-02-17T06:33:06Z,42.805,6.029,13.2993,4.60024,2470.646,2022-2-17T08:34:40Z
2022-02-17T06:36:09Z,42.805,6.029,13.2992,4.60022,2470.684,2022-2-17T08:37:43Z
2022-02-17T06:39:12Z,42.805,6.029,13.2995,4.60022,2470.646,2022-2-17T08:40:46Z
2022-02-17T06:42:15Z,42.805,6.029,13.2996,4.60021,2470.693,2022-2-17T08:43:49Z
2022-02-17T06:45:19Z,42.805,6.029,13.2998,4.60022,2470.717,2022-2-17T08:46:52Z
2022-02-17T06:48:22Z,42.805,6.029,13.2999,4.60022,2470.646,2022-2-17T08:49:55Z
2022-02-17T06:51:25Z,42.805,6.029,13.2998,4.60021,2470.646,2022-2-17T08:52:59Z
2022-02-17T06:54:28Z,42.805,6.029,13.2992,4.60022,2470.67,2022-2-17T08:56:02Z
2022-02-17T06:57:31Z,42.805,6.029,13.2993,4.60023,2470.67,2022-2-17T08:59:05Z
2022-02-17T07:00:34Z,42.805,6.029,13.2995,4.60023,2470.684,2022-2-17T09:02:08Z
2022-02-17T07:03:37Z,42.805,6.029,13.3000,4.60021,2470.67,2022-2-17T09:05:11Z
2022-02-17T07:06:40Z,42.805,6.029,13.2994,4.60025,2470.707,2022-2-17T09:08:14Z
2022-02-17T07:09:44Z,42.805,6.029,13.2993,4.60024,2470.684,2022-2-17T09:11:17Z
2022-02-17T07:12:47Z,42.805,6.029,13.2993,4.60023,2470.67,2022-2-17T09:14:20Z
2022-02-17T07:15:50Z,42.805,6.029,13.2996,4.60023,2470.67,2022-2-17T09:17:24Z
2022-02-17T07:18:53Z,42.805,6.029,13.2990,4.60023,2470.693,2022-2-17T09:20:27Z
2022-02-17T07:21:56Z,42.805,6.029,13.2993,4.60023,2470.693,2022-2-17T09:23:30Z
2022-02-17T07:24:59Z,42.805,6.029,13.2996,4.60028,2470.679,2022-2-17T09:26:33Z
2022-02-17T07:28:02Z,42.805,6.029,13.2994,4.60021,2470.707,2022-2-17T09:29:36Z
2022-02-17T07:31:05Z,42.805,6.029,13.2992,4.60023,2470.73,2022-2-17T09:32:39Z
2022-02-17T07:34:09Z,42.805,6.029,13.2995,4.60023,2470.707,2022-2-17T09:35:42Z
2022-02-17T07:37:12Z,42.805,6.029,13.2993,4.60026,2470.693,2022-2-17T09:38:45Z
2022-02-17T07:40:15Z,42.805,6.029,13.2993,4.60023,2470.707,2022-2-17T09:41:49Z
2022-02-17T07:43:18Z,42.805,6.029,13.2993,4.60022,2470.73,2022-2-17T09:44:52Z
2022-02-17T07:46:21Z,42.805,6.029,13.2995,4.60023,2470.707,2022-2-17T09:47:55Z
2022-02-17T07:49:24Z,42.805,6.029,13.2997,4.60025,2470.73,2022-2-17T09:50:58Z
2022-02-17T07:52:27Z,42.805,6.029,13.2996,4.60023,2470.693,2022-2-17T09:54:01Z
2022-02-17T07:55:30Z,42.805,6.029,13.2993,4.60023,2470.707,2022-2-17T09:57:04Z
2022-02-17T07:58:34Z,42.805,6.029,13.2990,4.60026,2470.67,2022-2-17T10:00:07Z
2022-02-17T08:01:37Z,42.805,6.029,13.2993,4.60026,2470.67,2022-2-17T10:03:10Z
2022-02-17T08:04:40Z,42.805,6.029,13.2990,4.60024,2470.693,2022-2-17T10:06:14Z
2022-02-17T08:07:43Z,42.805,6.029,13.2992,4.60024,2470.693,2022-2-17T10:09:17Z
2022-02-17T08:10:46Z,42.805,6.029,13.2995,4.60023,2470.717,2022-2-17T10:12:20Z
2022-02-17T08:13:49Z,42.805,6.029,13.3000,4.60022,2470.67,2022-2-17T10:15:23Z
2022-02-17T08:16:52Z,42.805,6.029,13.2995,4.60024,2470.693,2022-2-17T10:18:26Z
2022-02-17T08:19:55Z,42.805,6.029,13.2993,4.60024,2470.693,2022-2-17T10:21:29Z
2022-02-17T08:22:59Z,42.805,6.029,13.2997,4.60027,2470.693,2022-2-17T10:24:32Z
2022-02-17T08:26:02Z,42.805,6.029,13.2999,4.60025,2470.693,2022-2-17T10:27:35Z
2022-02-17T08:29:05Z,42.805,6.029,13.2996,4.60023,2470.67,2022-2-17T10:30:39Z
2022-02-17T08:32:08Z,42.805,6.029,13.2992,4.60024,2470.707,2022-2-17T10:33:42Z
2022-02-17T08:35:11Z,42.805,6.029,13.2993,4.60026,2470.717,2022-2-17T10:36:45Z
2022-02-17T08:38:14Z,42.805,6.029,13.2993,4.60027,2470.67,2022-2-17T10:39:48Z
2022-02-17T08:41:17Z,42.805,6.029,13.2993,4.60023,2470.693,2022-2-17T10:42:51Z
2022-02-17T08:44:20Z,42.805,6.029,13.2993,4.60023,2470.684,2022-2-17T10:45:54Z
2022-02-17T08:47:24Z,42.805,6.029,13.2994,4.60025,2470.67,2022-2-17T10:48:57Z
2022-02-17T08:50:27Z,42.805,6.029,13.2996,4.60023,2470.67,2022-2-17T10:52:00Z
2022-02-17T08:53:30Z,42.805,6.029,13.2997,4.60024,2470.693,2022-2-17T10:55:04Z
2022-02-17T08:56:33Z,42.805,6.029,13.2995,4.60025,2470.717,2022-2-17T10:58:07Z
2022-02-17T08:59:36Z,42.805,6.029,13.2994,4.60023,2470.707,2022-2-17T11:01:10Z
2022-02-17T09:02:39Z,42.805,6.029,13.2993,4.60023,2470.67,2022-2-17T11:04:13Z
2022-02-17T09:05:42Z,42.805,6.029,13.2993,4.60024,2470.693,2022-2-17T11:07:16Z
2022-02-17T09:08:45Z,42.805,6.029,13.2994,4.60024,2470.67,2022-2-17T11:10:19Z
2022-02-17T09:11:49Z,42.805,6.029,13.2995,4.60026,2470.693,2022-2-17T11:13:22Z
2022-02-17T09:14:52Z,42.805,6.029,13.2993,4.60024,2470.73,2022-2-17T11:16:25Z
2022-02-17T09:17:55Z,42.805,6.029,13.2996,4.60025,2470.67,2022-2-17T11:19:29Z
2022-02-17T09:20:58Z,42.805,6.029,13.2991,4.60027,2470.67,2022-2-17T11:22:32Z
2022-02-17T09:24:01Z,42.805,6.029,13.3000,4.60024,2470.707,2022-2-17T11:25:35Z
2022-02-17T09:27:04Z,42.805,6.029,13.2996,4.60023,2470.67,2022-2-17T11:28:38Z
2022-02-17T09:30:07Z,42.805,6.029,13.2994,4.60026,2470.707,2022-2-17T11:31:41Z
2022-02-17T09:33:10Z,42.805,6.029,13.2991,4.60024,2470.684,2022-2-17T11:34:44Z
2022-02-17T09:36:14Z,42.805,6.029,13.2993,4.60026,2470.661,2022-2-17T11:37:47Z
2022-02-17T09:39:17Z,42.805,6.029,13.2997,4.60026,2470.624,2022-2-17T11:40:50Z
2022-02-17T09:42:20Z,42.805,6.029,13.2996,4.60027,2470.684,2022-2-17T11:43:54Z
2022-02-17T09:45:23Z,42.805,6.029,13.2992,4.60026,2470.661,2022-2-17T11:46:57Z
2022-02-17T09:48:26Z,42.805,6.029,13.2996,4.60025,2470.67,2022-2-17T11:50:00Z
2022-02-17T09:51:29Z,42.805,6.029,13.2996,4.60026,2470.661,2022-2-17T11:53:03Z
2022-02-17T09:54:32Z,42.805,6.029,13.2993,4.60026,2470.646,2022-2-17T11:56:06Z
2022-02-17T09:57:35Z,42.805,6.029,13.2991,4.60026,2470.67,2022-2-17T11:59:09Z
2022-02-17T10:00:39Z,42.805,6.029,13.2995,4.60024,2470.646,2022-2-17T12:02:12Z
2022-02-17T10:03:42Z,42.805,6.029,13.2997,4.60026,2470.684,2022-2-17T12:05:15Z
2022-02-17T10:06:45Z,42.805,6.029,13.2991,4.60026,2470.646,2022-2-17T12:08:19Z
2022-02-17T10:09:48Z,42.805,6.029,13.2993,4.60026,2470.624,2022-2-17T12:11:22Z
2022-02-17T10:12:51Z,42.805,6.029,13.2993,4.60027,2470.624,2022-2-17T12:14:25Z
2022-02-17T10:15:54Z,42.805,6.029,13.2996,4.60024,2470.67,2022-2-17T12:17:28Z
2022-02-17T10:18:57Z,42.805,6.029,13.2994,4.60024,2470.646,2022-2-17T12:20:31Z
2022-02-17T10:22:00Z,42.805,6.029,13.2993,4.60024,2470.661,2022-2-17T12:23:34Z
2022-02-17T10:25:04Z,42.805,6.029,13.2996,4.60023,2470.67,2022-2-17T12:26:37Z
2022-02-17T10:28:07Z,42.805,6.029,13.2993,4.60026,2470.637,2022-2-17T12:29:40Z
2022-02-17T10:31:10Z,42.805,6.029,13.2996,4.60025,2470.577,2022-2-17T12:32:44Z
2022-02-17T10:34:13Z,42.805,6.029,13.2995,4.60026,2470.637,2022-2-17T12:35:47Z
2022-02-17T10:37:16Z,42.805,6.029,13.2996,4.60026,2470.6,2022-2-17T12:38:50Z
2022-02-17T10:40:19Z,42.805,6.029,13.2994,4.60024,2470.646,2022-2-17T12:41:53Z
2022-02-17T10:43:22Z,42.805,6.029,13.2993,4.60024,2470.661,2022-2-17T12:44:56Z
2022-02-17T10:46:26Z,42.805,6.029,13.2996,4.60024,2470.646,2022-2-17T12:47:59Z
2022-02-17T10:49:29Z,42.805,6.029,13.2993,4.60026,2470.624,2022-2-17T12:51:02Z
2022-02-17T10:52:32Z,42.805,6.029,13.2990,4.60026,2470.661,2022-2-17T12:54:06Z
2022-02-17T10:55:35Z,42.805,6.029,13.2993,4.60026,2470.646,2022-2-17T12:57:09Z
2022-02-17T10:58:38Z,42.805,6.029,13.2993,4.60025,2470.614,2022-2-17T13:00:12Z
2022-02-17T11:01:41Z,42.805,6.029,13.2998,4.60026,2470.577,2022-2-17T13:03:15Z
2022-02-17T11:04:44Z,42.805,6.029,13.2992,4.60024,2470.6,2022-2-17T13:06:18Z
2022-02-17T11:07:47Z,42.805,6.029,13.2995,4.60026,2470.577,2022-2-17T13:09:21Z
2022-02-17T11:10:51Z,42.805,6.029,13.2994,4.60024,2470.614,2022-2-17T13:12:24Z
2022-02-17T11:13:54Z,42.805,6.029,13.2992,4.60026,2470.577,2022-2-17T13:15:27Z
2022-02-17T11:16:57Z,42.805,6.029,13.2995,4.60029,2470.637,2022-2-17T13:18:31Z
2022-02-17T11:20:00Z,42.805,6.029,13.2996,4.60026,2470.614,2022-2-17T13:21:34Z
2022-02-17T11:23:03Z,42.805,6.029,13.2996,4.60024,2470.6,2022-2-17T13:24:37Z
2022-02-17T11:26:06Z,42.805,6.029,13.2993,4.60025,2470.577,2022-2-17T13:27:40Z
2022-02-17T11:29:09Z,42.805,6.029,13.2997,4.60027,2470.577,2022-2-17T13:30:43Z
2022-02-17T11:32:12Z,42.805,6.029,13.2995,4.60027,2470.577,2022-2-17T13:33:46Z
2022-02-17T11:35:16Z,42.805,6.029,13.2991,4.60024,2470.614,2022-2-17T13:36:49Z
2022-02-17T11:38:19Z,42.805,6.029,13.2995,4.60026,2470.567,2022-2-17T13:39:52Z
2022-02-17T11:41:22Z,42.805,6.029,13.2993,4.60025,2470.567,2022-2-17T13:42:56Z
2022-02-17T11:44:25Z,42.805,6.029,13.2995,4.60024,2470.553,2022-2-17T13:45:59Z
2022-02-17T11:47:28Z,42.805,6.029,13.2994,4.60025,2470.53,2022-2-17T13:49:02Z
2022-02-17T11:50:31Z,42.805,6.029,13.2998,4.60026,2470.553,2022-2-17T13:52:05Z
2022-02-17T11:53:34Z,42.805,6.029,13.2996,4.60024,2470.577,2022-2-17T13:55:08Z
2022-02-17T11:56:37Z,42.805,6.029,13.2997,4.60024,2470.567,2022-2-17T13:58:11Z
2022-02-17T11:59:41Z,42.805,6.029,13.2992,4.60025,2470.553,2022-2-17T14:01:14Z
2022-02-17T12:02:44Z,42.805,6.029,13.2998,4.60027,2470.553,2022-2-17T14:04:17Z
2022-02-17T12:05:47Z,42.805,6.029,13.2995,4.60025,2470.553,2022-2-17T14:07:21Z
2022-02-17T12:08:50Z,42.805,6.029,13.2996,4.60029,2470.53,2022-2-17T14:10:24Z
2022-02-17T12:11:53Z,42.805,6.029,13.2996,4.60024,2470.53,2022-2-17T14:13:27Z
2022-02-17T12:14:56Z,42.805,6.029,13.2997,4.60026,2470.553,2022-2-17T14:16:30Z
2022-02-17T12:17:59Z,42.805,6.029,13.2992,4.60024,2470.53,2022-2-17T14:19:33Z
2022-02-17T12:21:03Z,42.805,6.029,13.2993,4.60026,2470.553,2022-2-17T14:22:36Z
2022-02-17T12:24:06Z,42.805,6.029,13.2994,4.60025,2470.53,2022-2-17T14:25:39Z
2022-02-17T12:27:09Z,42.805,6.029,13.2995,4.60023,2470.544,2022-2-17T14:28:42Z
2022-02-17T12:30:12Z,42.805,6.029,13.2996,4.60024,2470.507,2022-2-17T14:31:46Z
2022-02-17T12:33:15Z,42.805,6.029,13.2996,4.60024,2470.53,2022-2-17T14:34:49Z
2022-02-17T12:36:18Z,42.805,6.029,13.2995,4.60024,2470.52,2022-2-17T14:37:52Z
2022-02-17T12:39:21Z,42.805,6.029,13.2996,4.60024,2470.53,2022-2-17T14:40:55Z
2022-02-17T12:42:24Z,42.805,6.029,13.2990,4.60023,2470.544,2022-2-17T14:43:58Z
2022-02-17T12:45:28Z,42.805,6.029,13.2998,4.60024,2470.544,2022-2-17T14:47:01Z
2022-02-17T12:48:31Z,42.805,6.029,13.2996,4.60023,2470.53,2022-2-17T14:50:04Z
2022-02-17T12:51:34Z,42.805,6.029,13.2991,4.60024,2470.493,2022-2-17T14:53:07Z
2022-02-17T12:54:37Z,42.805,6.029,13.2995,4.60024,2470.507,2022-2-17T14:56:11Z
2022-02-17T12:57:40Z,42.805,6.029,13.2996,4.60024,2470.52,2022-2-17T14:59:14Z
2022-02-17T13:00:43Z,42.805,6.029,13.2998,4.60024,2470.52,2022-2-17T15:02:17Z
2022-02-17T13:03:46Z,42.805,6.029,13.2993,4.60024,2470.53,2022-2-17T15:05:20Z
2022-02-17T13:06:49Z,42.805,6.029,13.2994,4.60023,2470.53,2022-2-17T15:08:23Z
2022-02-17T13:09:53Z,42.805,6.029,13.2995,4.60023,2470.507,2022-2-17T15:11:26Z
2022-02-17T13:12:56Z,42.805,6.029,13.2994,4.60022,2470.544,2022-2-17T15:14:29Z
2022-02-17T13:15:59Z,42.805,6.029,13.2993,4.60023,2470.507,2022-2-17T15:17:33Z
2022-02-17T13:19:02Z,42.805,6.029,13.2994,4.60022,2470.507,2022-2-17T15:20:36Z
2022-02-17T13:22:05Z,42.805,6.029,13.2996,4.60022,2470.507,2022-2-17T15:23:39Z
2022-02-17T13:25:08Z,42.805,6.029,13.2994,4.60023,2470.483,2022-2-17T15:26:42Z
2022-02-17T13:28:11Z,42.805,6.029,13.2993,4.60024,2470.507,2022-2-17T15:29:45Z
2022-02-17T13:31:14Z,42.805,6.029,13.2993,4.60023,2470.483,2022-2-17T15:32:48Z
2022-02-17T13:34:18Z,42.805,6.029,13.2994,4.60023,2470.52,2022-2-17T15:35:51Z
2022-02-17T13:37:21Z,42.805,6.029,13.2993,4.60024,2470.52,2022-2-17T15:38:54Z
2022-02-17T13:40:24Z,42.805,6.029,13.2996,4.60022,2470.52,2022-2-17T15:41:58Z
2022-02-17T13:43:27Z,42.805,6.029,13.2996,4.60024,2470.507,2022-2-17T15:45:01Z
2022-02-17T13:46:30Z,42.805,6.029,13.2993,4.60023,2470.45,2022-2-17T15:48:04Z
2022-02-17T13:49:33Z,42.805,6.029,13.2994,4.60023,2470.46,2022-2-17T15:51:07Z
2022-02-17T13:52:36Z,42.805,6.029,13.2995,4.60023,2470.507,2022-2-17T15:54:10Z
2022-02-17T13:55:39Z,42.805,6.029,13.2993,4.60022,2470.483,2022-2-17T15:57:13Z
2022-02-17T13:58:43Z,42.805,6.029,13.2997,4.60022,2470.483,2022-2-17T16:00:16Z
2022-02-17T14:01:46Z,42.805,6.029,13.2993,4.60021,2470.483,2022-2-17T16:03:19Z
2022-02-17T14:04:49Z,42.805,6.029,13.2992,4.60022,2470.507,2022-2-17T16:06:23Z
2022-02-17T14:07:52Z,42.805,6.029,13.2992,4.60022,2470.507,2022-2-17T16:09:26Z
2022-02-17T14:10:55Z,42.805,6.029,13.2993,4.60022,2470.474,2022-2-17T16:12:29Z
2022-02-17T14:13:58Z,42.805,6.029,13.2992,4.60022,2470.46,2022-2-17T16:15:32Z
2022-02-17T14:17:01Z,42.805,6.029,13.2995,4.60023,2470.483,2022-2-17T16:18:35Z
2022-02-17T14:20:04Z,42.805,6.029,13.2997,4.60023,2470.46,2022-2-17T16:21:38Z
2022-02-17T14:23:08Z,42.805,6.029,13.2993,4.60023,2470.474,2022-2-17T16:24:41Z
2022-02-17T14:26:11Z,42.805,6.029,13.2998,4.60023,2470.507,2022-2-17T16:27:44Z
2022-02-17T14:29:14Z,42.805,6.029,13.2992,4.60024,2470.483,2022-2-17T16:30:48Z
2022-02-17T14:32:17Z,42.805,6.029,13.2996,4.60023,2470.46,2022-2-17T16:33:51Z
2022-02-17T14:35:20Z,42.805,6.029,13.2994,4.60024,2470.47,2022-2-17T16:36:54Z
2022-02-17T14:38:23Z,42.805,6.029,13.2998,4.60023,2470.483,2022-2-17T16:39:57Z
2022-02-17T14:41:26Z,42.805,6.029,13.2993,4.60023,2470.507,2022-2-17T16:43:00Z
2022-02-17T14:44:29Z,42.805,6.029,13.2995,4.60025,2470.46,2022-2-17T16:46:03Z
2022-02-17T14:47:33Z,42.805,6.029,13.2996,4.60024,2470.497,2022-2-17T16:49:06Z
2022-02-17T14:50:36Z,42.805,6.029,13.2998,4.60024,2470.507,2022-2-17T16:52:09Z
2022-02-17T14:53:39Z,42.805,6.029,13.2995,4.60024,2470.46,2022-2-17T16:55:13Z
2022-02-17T14:56:42Z,42.805,6.029,13.2993,4.60023,2470.497,2022-2-17T16:58:16Z
2022-02-17T14:59:45Z,42.805,6.029,13.2993,4.60022,2470.474,2022-2-17T17:01:19Z
2022-02-17T15:02:48Z,42.805,6.029,13.2995,4.60023,2470.474,2022-2-17T17:04:22Z
2022-02-17T15:05:51Z,42.805,6.029,13.2990,4.60022,2470.507,2022-2-17T17:07:25Z
2022-02-17T15:08:55Z,42.805,6.029,13.2990,4.60022,2470.46,2022-2-17T17:10:28Z
2022-02-17T15:11:58Z,42.805,6.029,13.2991,4.60021,2470.474,2022-2-17T17:13:31Z
2022-02-17T15:15:01Z,42.805,6.029,13.2997,4.60022,2470.53,2022-2-17T17:16:34Z